Estherville, IA

2:36 AM CDT on July 26, 2017 (GMT -0500)
Estherville Municipal

Weather History for KEST - May, 2014

Change the Weather History Date:

Saturday, May 3, 2014

  Actual Average Record
Temperature  
Mean Temperature 51 °F 54 °F  
Max Temperature 65 °F 66 °F 92 °F (1949)
Min Temperature 36 °F 42 °F 18 °F (1967)
Degree Days  
Heating Degree Days 14 11  
Month to date heating degree days 53 35  
Since 1 July heating degree days 8336 7496  
Cooling Degree Days 0 0  
Month to date cooling degree days 0 0  
Year to date cooling degree days 0 2  
Moisture  
Dew Point 35 °F    
Average Humidity 60    
Maximum Humidity 89    
Minimum Humidity 30    
Precipitation  
Precipitation 0.00 in 0.11 in 0.97 in (2001)
Month to date precipitation 0.07 0.34  
Sea Level Pressure  
Sea Level Pressure 29.89 in    
Wind  
Wind Speed 12 mph (NW)    
Max Wind Speed 23 mph    
Max Gust Speed 32 mph    
Visibility 10 miles    
Events      
T = Trace of Precipitation, MM = Missing Value Source: NWS Daily Summary

Daily Weather History Graph

Daily Weather History Graph

Search for Another Location

Airport or City:

Trip Planner

Search our weather history database for the weather conditions in past years. The results will help you decide how hot, cold, wet, or windy it might be!

Date:

Astronomy

May. 03, 2014 Rise Set
Actual Time 6:09 AM CDT 8:23 PM CDT
Civil Twilight 5:37 AM CDT 8:54 PM CDT
Nautical Twilight 4:58 AM CDT 9:34 PM CDT
Astronomical Twilight 4:15 AM CDT 10:17 PM CDT
Moon 9:38 AM CDT (5/3) No Moon Set
Length of Visible Light 15h 17m
Length of Day
14h 14m
Waxing Crescent, 20% of the Moon is Illuminated
May 3
Waxing Crescent
May 6
First Quarter
May 14
Full
May 21
Last Quarter
May 28
New

Hourly Weather History & Observations

Time (CDT) Temp. Windchill Dew Point Humidity Pressure Visibility Wind Dir Wind Speed Gust Speed Precip Events Conditions
12:52 AM 39.9 °F 33.9 °F 35.1 °F 83% 29.80 in 10.0 mi West 9.2 mph - N/A   Clear
1:52 AM 37.9 °F 30.5 °F 34.0 °F 86% 29.81 in 10.0 mi West 11.5 mph - N/A   Clear
2:52 AM 39.0 °F 31.4 °F 34.0 °F 82% 29.81 in 10.0 mi West 12.7 mph - N/A   Clear
3:52 AM 39.9 °F 32.9 °F 34.0 °F 79% 29.82 in 10.0 mi West 11.5 mph - N/A   Clear
4:52 AM 37.0 °F 29.3 °F 33.1 °F 86% 29.83 in 10.0 mi West 11.5 mph - N/A   Clear
5:52 AM 36.0 °F 28.0 °F 32.0 °F 86% 29.84 in 10.0 mi West 11.5 mph - N/A   Clear
6:52 AM 37.9 °F 30.9 °F 34.0 °F 86% 29.85 in 10.0 mi West 10.4 mph - N/A   Clear
7:52 AM 43.0 °F 36.8 °F 36.0 °F 76% 29.87 in 10.0 mi WNW 11.5 mph - N/A   Mostly Cloudy
8:52 AM 52.0 °F - 37.0 °F 57% 29.87 in 10.0 mi WNW 15.0 mph - N/A   Clear
9:52 AM 55.9 °F - 37.0 °F 49% 29.88 in 10.0 mi NW 16.1 mph - N/A   Scattered Clouds
10:52 AM 59.0 °F - 37.9 °F 46% 29.88 in 10.0 mi NNW 19.6 mph - N/A   Scattered Clouds
11:52 AM 60.1 °F - 37.9 °F 44% 29.90 in 10.0 mi NW 18.4 mph 27.6 mph N/A   Clear
12:52 PM 62.1 °F - 37.0 °F 39% 29.90 in 10.0 mi WNW 16.1 mph 27.6 mph N/A   Clear
1:52 PM 62.1 °F - 35.1 °F 37% 29.89 in 10.0 mi NW 13.8 mph 27.6 mph N/A   Scattered Clouds
3:52 PM 62.1 °F - 32.0 °F 32% 29.90 in 10.0 mi NW 17.3 mph - N/A   Scattered Clouds
4:52 PM 60.1 °F - 34.0 °F 38% 29.91 in 10.0 mi NNW 13.8 mph 21.9 mph N/A   Scattered Clouds
5:52 PM 60.1 °F - 34.0 °F 38% 29.91 in 10.0 mi North 13.8 mph - N/A   Scattered Clouds
6:52 PM 57.9 °F - 32.0 °F 37% 29.92 in 10.0 mi NNW 10.4 mph - N/A   Scattered Clouds
7:52 PM 57.9 °F - 33.1 °F 39% 29.94 in 10.0 mi NW 8.1 mph - N/A   Overcast
8:52 PM 53.1 °F - 35.1 °F 50% 29.94 in 10.0 mi NNW 3.5 mph - N/A   Partly Cloudy
9:52 PM 48.9 °F - 35.1 °F 59% 29.97 in 10.0 mi North 10.4 mph - N/A   Partly Cloudy
10:52 PM 48.9 °F - 37.0 °F 64% 29.97 in 10.0 mi North 6.9 mph - N/A   Overcast
11:52 PM 50.0 °F - 37.0 °F 61% 29.98 in 10.0 mi North 10.4 mph - N/A   Overcast